Time,TemperatureF,DewpointF,PressureIn,WindDirection,WindDirectionDegrees,WindSpeedMPH,WindSpeedGustMPH,Humidity,HourlyPrecipIn,Conditions,Clouds,dailyrainin,SoftwareType,DateUTC
2013-04-08 00:00:00,34.9,28.8,29.90,ENE,67,0.0,0.0,78,0.00,,,0.05,WUHU216WMR100,2013-04-08 05:00:00,
2013-04-08 00:05:00,34.9,29.1,29.90,ENE,67,0.0,0.0,79,0.00,,,0.00,WUHU216WMR100,2013-04-08 05:05:00,
2013-04-08 00:10:00,34.9,28.8,29.90,ENE,67,0.0,0.0,78,0.00,,,0.00,WUHU216WMR100,2013-04-08 05:10:00,
2013-04-08 00:15:00,34.9,28.8,29.90,ENE,67,1.8,1.8,78,0.00,,,0.00,WUHU216WMR100,2013-04-08 05:15:00,
2013-04-08 00:20:00,34.9,29.1,29.90,ENE,67,0.0,1.8,79,0.00,,,0.00,WUHU216WMR100,2013-04-08 05:20:00,
2013-04-08 00:25:00,34.9,29.1,29.90,ENE,67,0.0,0.0,79,0.00,,,0.00,WUHU216WMR100,2013-04-08 05:25:00,
2013-04-08 00:30:00,34.9,29.1,29.90,ENE,67,0.0,0.0,79,0.00,,,0.00,WUHU216WMR100,2013-04-08 05:30:00,
2013-04-08 00:35:00,35.2,29.7,29.90,ENE,67,0.0,1.5,80,0.00,,,0.00,WUHU216WMR100,2013-04-08 05:35:00,
2013-04-08 00:40:00,36.1,30.8,29.90,East,90,2.6,2.6,81,0.00,,,0.00,WUHU216WMR100,2013-04-08 05:40:00,
2013-04-08 00:45:00,37.8,34.5,29.90,East,90,5.6,5.6,88,0.00,,,0.00,WUHU216WMR100,2013-04-08 05:45:00,
2013-04-08 00:50:00,39.4,36.9,29.90,ESE,112,4.5,5.6,91,0.00,,,0.00,WUHU216WMR100,2013-04-08 05:50:00,
2013-04-08 00:55:00,41.0,37.7,29.90,ENE,76,8.0,9.6,88,0.00,,,0.00,WUHU216WMR100,2013-04-08 05:55:00,
2013-04-08 01:00:00,41.7,36.9,29.90,ESE,120,5.7,9.6,83,0.00,,,0.00,WUHU216WMR100,2013-04-08 06:00:00,
2013-04-08 01:05:00,43.0,36.3,29.90,SE,126,7.1,11.9,77,0.00,,,0.00,WUHU216WMR100,2013-04-08 06:05:00,
2013-04-08 01:10:00,43.5,35.8,29.90,SE,144,6.0,11.9,74,0.00,,,0.00,WUHU216WMR100,2013-04-08 06:10:00,
2013-04-08 01:15:00,44.1,35.7,29.90,SSE,157,7.1,10.4,72,0.00,,,0.00,WUHU216WMR100,2013-04-08 06:15:00,
2013-04-08 01:20:00,44.4,35.3,29.90,SSE,159,8.1,10.4,70,0.00,,,0.00,WUHU216WMR100,2013-04-08 06:20:00,
2013-04-08 01:25:00,44.6,34.4,29.90,ESE,119,10.7,11.4,67,0.00,,,0.00,WUHU216WMR100,2013-04-08 06:25:00,
2013-04-08 01:30:00,45.0,34.4,29.90,SSE,157,12.5,14.4,66,0.00,,,0.00,WUHU216WMR100,2013-04-08 06:30:00,
2013-04-08 01:35:00,45.1,34.1,29.90,ENE,67,12.9,14.4,65,0.00,,,0.00,WUHU216WMR100,2013-04-08 06:35:00,
2013-04-08 01:40:00,45.1,33.7,29.90,SE,135,10.2,12.9,64,0.00,,,0.00,WUHU216WMR100,2013-04-08 06:40:00,
2013-04-08 01:45:00,45.3,33.9,29.90,SE,127,6.0,12.9,64,0.00,,,0.00,WUHU216WMR100,2013-04-08 06:45:00,
2013-04-08 01:51:00,45.3,33.5,29.90,SSE,157,13.4,13.4,63,0.00,,,0.00,WUHU216WMR100,2013-04-08 06:51:00,
2013-04-08 01:55:00,45.5,33.7,29.90,ESE,119,5.4,13.4,63,0.00,,,0.00,WUHU216WMR100,2013-04-08 06:55:00,
2013-04-08 02:00:00,45.5,33.7,29.90,South,180,6.3,12.2,63,0.00,,,0.00,WUHU216WMR100,2013-04-08 07:00:00,
2013-04-08 02:06:00,45.3,33.5,29.90,SSE,151,6.3,12.2,63,0.00,,,0.00,WUHU216WMR100,2013-04-08 07:06:00,
2013-04-08 02:11:00,45.3,33.5,29.87,SE,135,10.4,12.2,63,0.00,,,0.00,WUHU216WMR100,2013-04-08 07:11:00,
2013-04-08 02:16:00,45.3,33.5,29.87,ESE,112,12.2,12.2,63,0.00,,,0.00,WUHU216WMR100,2013-04-08 07:16:00,
2013-04-08 02:21:00,45.5,33.7,29.87,ESE,112,14.7,14.7,63,0.00,,,0.00,WUHU216WMR100,2013-04-08 07:21:00,
2013-04-08 02:27:00,45.5,33.3,29.87,ESE,103,11.0,14.7,62,0.00,,,0.00,WUHU216WMR100,2013-04-08 07:27:00,
2013-04-08 02:32:00,45.5,33.3,29.84,SE,133,9.5,13.4,62,0.00,,,0.00,WUHU216WMR100,2013-04-08 07:32:00,
2013-04-08 02:37:00,45.7,33.5,29.84,ESE,109,11.1,13.4,62,0.00,,,0.00,WUHU216WMR100,2013-04-08 07:37:00,
2013-04-08 02:42:00,45.9,33.7,29.84,ESE,112,17.3,17.3,62,0.00,,,0.00,WUHU216WMR100,2013-04-08 07:42:00,
2013-04-08 02:47:00,46.0,33.4,29.84,SE,144,9.4,17.3,61,0.00,,,0.00,WUHU216WMR100,2013-04-08 07:47:00,
2013-04-08 02:52:00,46.4,33.3,29.84,ESE,120,10.3,16.2,60,0.00,,,0.00,WUHU216WMR100,2013-04-08 07:52:00,
2013-04-08 02:57:00,46.6,33.1,29.84,SSE,157,6.6,16.2,59,0.00,,,0.00,WUHU216WMR100,2013-04-08 07:57:00,
2013-04-08 03:02:00,46.6,33.1,29.84,SE,135,14.0,15.8,59,0.00,,,0.00,WUHU216WMR100,2013-04-08 08:02:00,
2013-04-08 03:07:00,46.8,33.3,29.84,SE,146,10.2,15.8,59,0.00,,,0.00,WUHU216WMR100,2013-04-08 08:07:00,
2013-04-08 03:12:00,46.9,33.0,29.84,ESE,112,7.2,12.9,58,0.00,,,0.00,WUHU216WMR100,2013-04-08 08:12:00,
2013-04-08 03:17:00,46.9,33.0,29.82,SSE,157,12.2,13.4,58,0.00,,,0.00,WUHU216WMR100,2013-04-08 08:17:00,
2013-04-08 03:22:00,47.3,32.9,29.82,ESE,112,11.9,15.8,57,0.00,,,0.00,WUHU216WMR100,2013-04-08 08:22:00,
2013-04-08 03:27:00,47.3,32.9,29.82,SSE,157,14.0,19.6,57,0.00,,,0.00,WUHU216WMR100,2013-04-08 08:27:00,
2013-04-08 03:32:00,47.5,33.1,29.82,East,101,18.4,23.9,57,0.00,,,0.00,WUHU216WMR100,2013-04-08 08:32:00,
2013-04-08 03:37:00,47.5,33.1,29.82,ESE,112,20.0,23.9,57,0.00,,,0.00,WUHU216WMR100,2013-04-08 08:37:00,
2013-04-08 03:42:00,47.5,33.1,29.82,ENE,67,15.2,22.1,57,0.00,,,0.00,WUHU216WMR100,2013-04-08 08:42:00,
2013-04-08 03:47:00,47.5,33.1,29.82,SE,133,12.4,22.1,57,0.00,,,0.00,WUHU216WMR100,2013-04-08 08:47:00,
2013-04-08 03:52:00,47.5,33.1,29.82,SE,145,8.6,18.1,57,0.00,,,0.00,WUHU216WMR100,2013-04-08 08:52:00,
2013-04-08 03:57:00,47.3,32.9,29.82,ESE,121,9.7,11.9,57,0.00,,,0.00,WUHU216WMR100,2013-04-08 08:57:00,
2013-04-08 04:02:00,47.5,33.1,29.82,SE,139,16.7,20.0,57,0.00,,,0.00,WUHU216WMR100,2013-04-08 09:02:00,
2013-04-08 04:07:00,47.5,33.5,29.82,SE,146,6.9,20.0,58,0.00,,,0.00,WUHU216WMR100,2013-04-08 09:07:00,
2013-04-08 04:12:00,47.3,33.3,29.82,ESE,123,13.1,17.0,58,0.00,,,0.00,WUHU216WMR100,2013-04-08 09:12:00,
2013-04-08 04:17:00,47.3,33.3,29.79,SSE,151,14.1,16.2,58,0.00,,,0.00,WUHU216WMR100,2013-04-08 09:17:00,
2013-04-08 04:22:00,47.3,33.8,29.79,East,92,5.7,16.2,59,0.00,,,0.00,WUHU216WMR100,2013-04-08 09:22:00,
2013-04-08 04:27:00,47.3,33.8,29.79,ESE,119,8.0,14.4,59,0.00,,,0.00,WUHU216WMR100,2013-04-08 09:27:00,
2013-04-08 04:32:00,47.3,34.2,29.79,ESE,112,10.7,14.4,60,0.00,,,0.00,WUHU216WMR100,2013-04-08 09:32:00,
2013-04-08 04:37:00,47.5,34.4,29.79,ENE,67,10.4,12.5,60,0.00,,,0.00,WUHU216WMR100,2013-04-08 09:37:00,
2013-04-08 04:42:00,47.5,34.4,29.79,SE,138,7.7,10.4,60,0.00,,,0.00,WUHU216WMR100,2013-04-08 09:42:00,
2013-04-08 04:47:00,47.5,34.4,29.79,SSE,157,9.2,10.4,60,0.00,,,0.00,WUHU216WMR100,2013-04-08 09:47:00,
2013-04-08 04:52:00,47.7,34.6,29.79,SE,135,11.1,11.1,60,0.00,,,0.00,WUHU216WMR100,2013-04-08 09:52:00,
2013-04-08 04:57:00,47.8,34.7,29.79,SE,135,7.1,11.1,60,0.00,,,0.00,WUHU216WMR100,2013-04-08 09:57:00,
2013-04-08 05:02:00,48.2,34.6,29.79,SE,145,8.7,12.2,59,0.00,,,0.00,WUHU216WMR100,2013-04-08 10:02:00,
2013-04-08 05:07:00,48.2,35.0,29.79,SE,139,9.0,12.2,60,0.00,,,0.00,WUHU216WMR100,2013-04-08 10:07:00,
2013-04-08 05:12:00,48.2,35.0,29.79,SSE,157,6.6,9.6,60,0.00,,,0.00,WUHU216WMR100,2013-04-08 10:12:00,
2013-04-08 05:17:00,48.4,35.2,29.79,SE,131,6.4,10.4,60,0.00,,,0.00,WUHU216WMR100,2013-04-08 10:17:00,
2013-04-08 05:22:00,48.4,35.7,29.79,SE,135,6.6,10.4,61,0.00,,,0.00,WUHU216WMR100,2013-04-08 10:22:00,
2013-04-08 05:27:00,48.6,35.8,29.79,SE,141,12.0,15.2,61,0.00,,,0.00,WUHU216WMR100,2013-04-08 10:27:00,
2013-04-08 05:32:00,48.7,36.4,29.79,SSE,150,8.8,16.7,62,0.00,,,0.00,WUHU216WMR100,2013-04-08 10:32:00,
2013-04-08 05:37:00,48.7,36.8,29.79,SSE,153,5.3,16.7,63,0.00,,,0.00,WUHU216WMR100,2013-04-08 10:37:00,
2013-04-08 05:42:00,48.7,37.2,29.79,SE,144,9.9,12.9,64,0.00,,,0.00,WUHU216WMR100,2013-04-08 10:42:00,
2013-04-08 05:47:00,48.7,38.7,29.79,ESE,122,10.8,13.4,68,0.00,,,0.00,WUHU216WMR100,2013-04-08 10:47:00,
2013-04-08 05:52:00,48.2,39.3,29.79,ENE,67,7.8,13.4,71,0.00,,,0.00,WUHU216WMR100,2013-04-08 10:52:00,
2013-04-08 05:57:00,47.8,40.3,29.79,SE,138,11.7,17.0,75,0.00,,,0.00,WUHU216WMR100,2013-04-08 10:57:00,
2013-04-08 06:02:00,47.5,40.7,29.79,ESE,118,7.3,17.0,77,0.00,,,0.00,WUHU216WMR100,2013-04-08 11:02:00,
2013-04-08 06:07:00,47.3,41.5,29.79,ESE,109,5.6,12.9,80,0.04,,,0.04,WUHU216WMR100,2013-04-08 11:07:00,
2013-04-08 06:12:00,47.1,42.2,29.79,SE,132,6.5,12.9,83,0.04,,,0.04,WUHU216WMR100,2013-04-08 11:12:00,
2013-04-08 06:17:00,47.1,42.8,29.79,South,170,4.6,8.9,85,0.04,,,0.04,WUHU216WMR100,2013-04-08 11:17:00,
2013-04-08 06:22:00,46.9,43.2,29.79,SSE,157,6.6,9.2,87,0.08,,,0.08,WUHU216WMR100,2013-04-08 11:22:00,
2013-04-08 06:27:00,46.9,44.1,29.79,SSE,153,6.8,9.2,90,0.08,,,0.08,WUHU216WMR100,2013-04-08 11:27:00,
2013-04-08 06:32:00,47.1,44.9,29.76,East,90,9.9,9.9,92,0.08,,,0.08,WUHU216WMR100,2013-04-08 11:32:00,
2013-04-08 06:37:00,47.1,45.4,29.76,SSE,147,5.3,9.9,94,0.12,,,0.12,WUHU216WMR100,2013-04-08 11:37:00,
2013-04-08 06:42:00,47.1,45.7,29.76,SE,135,7.1,8.9,95,0.12,,,0.12,WUHU216WMR100,2013-04-08 11:42:00,
2013-04-08 06:47:00,47.1,46.0,29.76,SSE,157,12.2,12.2,96,0.12,,,0.12,WUHU216WMR100,2013-04-08 11:47:00,
2013-04-08 06:52:00,47.3,46.5,29.76,SE,130,6.9,12.2,97,0.12,,,0.12,WUHU216WMR100,2013-04-08 11:52:00,
2013-04-08 06:57:00,47.5,46.9,29.76,ESE,112,9.9,12.2,98,0.12,,,0.12,WUHU216WMR100,2013-04-08 11:57:00,
2013-04-08 07:02:00,47.7,47.4,29.73,SE,135,12.5,17.0,99,0.12,,,0.12,WUHU216WMR100,2013-04-08 12:02:00,
2013-04-08 07:07:00,47.8,47.5,29.73,SE,137,10.2,17.0,99,0.12,,,0.16,WUHU216WMR100,2013-04-08 12:07:00,
2013-04-08 07:12:00,48.2,47.9,29.73,SE,142,12.6,20.3,99,0.12,,,0.16,WUHU216WMR100,2013-04-08 12:12:00,
2013-04-08 07:17:00,48.7,48.4,29.70,ESE,120,14.4,20.3,99,0.12,,,0.16,WUHU216WMR100,2013-04-08 12:17:00,
2013-04-08 07:22:00,49.5,49.2,29.70,SSE,157,20.6,20.6,99,0.08,,,0.16,WUHU216WMR100,2013-04-08 12:22:00,
2013-04-08 07:28:00,50.0,49.7,29.70,ESE,112,8.3,20.6,99,0.08,,,0.16,WUHU216WMR100,2013-04-08 12:28:00,
2013-04-08 07:33:00,50.4,50.1,29.70,SSE,150,14.3,20.6,99,0.08,,,0.16,WUHU216WMR100,2013-04-08 12:33:00,
2013-04-08 07:38:00,50.4,50.1,29.70,SSE,157,25.4,28.7,99,0.04,,,0.16,WUHU216WMR100,2013-04-08 12:38:00,
2013-04-08 07:43:00,50.5,50.2,29.70,SE,125,9.9,28.7,99,0.04,,,0.16,WUHU216WMR100,2013-04-08 12:43:00,
2013-04-08 07:48:00,50.7,50.4,29.70,SSE,159,10.5,25.4,99,0.04,,,0.16,WUHU216WMR100,2013-04-08 12:48:00,
2013-04-08 07:53:00,50.9,50.6,29.70,SSE,157,11.9,16.2,99,0.04,,,0.16,WUHU216WMR100,2013-04-08 12:53:00,
2013-04-08 07:58:00,51.4,51.1,29.70,SSE,157,10.7,16.2,99,0.04,,,0.16,WUHU216WMR100,2013-04-08 12:58:00,
2013-04-08 08:03:00,51.6,51.3,29.70,South,190,13.1,15.8,99,0.04,,,0.16,WUHU216WMR100,2013-04-08 13:03:00,
2013-04-08 08:08:00,51.6,51.3,29.70,SSE,157,8.1,15.8,99,0.05,,,0.21,WUHU216WMR100,2013-04-08 13:08:00,
2013-04-08 08:13:00,51.8,51.5,29.70,WSW,247,11.9,14.0,99,0.05,,,0.21,WUHU216WMR100,2013-04-08 13:13:00,
2013-04-08 08:18:00,52.0,51.7,29.70,SSW,193,8.2,14.0,99,0.05,,,0.21,WUHU216WMR100,2013-04-08 13:18:00,
2013-04-08 08:23:00,52.5,52.2,29.70,SSE,157,8.9,13.4,99,0.05,,,0.21,WUHU216WMR100,2013-04-08 13:23:00,
2013-04-08 08:28:00,52.9,52.6,29.70,SSE,157,8.5,13.4,99,0.05,,,0.21,WUHU216WMR100,2013-04-08 13:28:00,
2013-04-08 08:33:00,53.6,53.3,29.70,South,176,7.3,12.9,99,0.05,,,0.21,WUHU216WMR100,2013-04-08 13:33:00,
2013-04-08 08:38:00,54.3,54.0,29.70,SSE,157,5.9,12.5,99,0.05,,,0.21,WUHU216WMR100,2013-04-08 13:38:00,
2013-04-08 08:43:00,55.0,54.7,29.70,ESE,112,5.1,7.4,99,0.05,,,0.21,WUHU216WMR100,2013-04-08 13:43:00,
2013-04-08 08:48:00,55.6,55.3,29.67,SSE,167,5.6,8.1,99,0.05,,,0.21,WUHU216WMR100,2013-04-08 13:48:00,
2013-04-08 08:53:00,56.1,55.8,29.67,SSE,166,8.9,9.2,99,0.05,,,0.21,WUHU216WMR100,2013-04-08 13:53:00,
2013-04-08 08:58:00,56.3,56.0,29.67,SSE,161,7.7,14.0,99,0.05,,,0.21,WUHU216WMR100,2013-04-08 13:58:00,
2013-04-08 09:03:00,56.7,56.1,29.67,SSW,210,3.9,14.0,98,0.05,,,0.21,WUHU216WMR100,2013-04-08 14:03:00,
2013-04-08 09:08:00,56.8,55.9,29.67,South,183,4.1,7.1,97,0.00,,,0.21,WUHU216WMR100,2013-04-08 14:08:00,
2013-04-08 09:13:00,57.4,55.9,29.67,South,189,5.0,6.6,95,0.00,,,0.21,WUHU216WMR100,2013-04-08 14:13:00,
2013-04-08 09:18:00,58.3,56.5,29.67,South,173,6.4,8.9,94,0.00,,,0.21,WUHU216WMR100,2013-04-08 14:18:00,
2013-04-08 09:23:00,59.0,56.3,29.67,SSW,202,11.9,11.9,91,0.00,,,0.21,WUHU216WMR100,2013-04-08 14:23:00,
2013-04-08 09:28:00,59.4,56.1,29.67,ENE,67,4.8,11.9,89,0.00,,,0.21,WUHU216WMR100,2013-04-08 14:28:00,
2013-04-08 09:33:00,60.6,56.4,29.67,WSW,239,5.4,10.4,86,0.00,,,0.21,WUHU216WMR100,2013-04-08 14:33:00,
2013-04-08 09:38:00,61.3,56.1,29.67,SSW,202,7.1,8.1,83,0.00,,,0.21,WUHU216WMR100,2013-04-08 14:38:00,
2013-04-08 09:43:00,61.5,55.7,29.67,SSW,206,7.6,14.4,81,0.00,,,0.21,WUHU216WMR100,2013-04-08 14:43:00,
2013-04-08 09:48:00,61.3,54.8,29.67,SW,219,15.5,20.0,79,0.00,,,0.21,WUHU216WMR100,2013-04-08 14:48:00,
2013-04-08 09:53:00,61.3,54.5,29.67,WSW,254,8.2,20.0,78,0.00,,,0.21,WUHU216WMR100,2013-04-08 14:53:00,
2013-04-08 09:58:00,61.2,54.4,29.67,SW,219,10.9,12.5,78,0.00,,,0.21,WUHU216WMR100,2013-04-08 14:58:00,
2013-04-08 10:03:00,61.2,54.4,29.67,SW,226,8.2,18.1,78,0.00,,,0.21,WUHU216WMR100,2013-04-08 15:03:00,
2013-04-08 10:08:00,61.3,54.8,29.67,SW,225,11.7,18.1,79,0.00,,,0.21,WUHU216WMR100,2013-04-08 15:08:00,
2013-04-08 10:13:00,61.3,54.8,29.67,WNW,287,12.3,18.1,79,0.00,,,0.21,WUHU216WMR100,2013-04-08 15:13:00,
2013-04-08 10:18:00,61.7,55.2,29.67,SW,222,13.0,17.7,79,0.00,,,0.21,WUHU216WMR100,2013-04-08 15:18:00,
2013-04-08 10:23:00,62.8,55.2,29.67,WSW,247,35.5,35.5,76,0.00,,,0.21,WUHU216WMR100,2013-04-08 15:23:00,
2013-04-08 10:28:00,63.3,55.0,29.67,WSW,247,14.0,35.5,74,0.00,,,0.21,WUHU216WMR100,2013-04-08 15:28:00,
2013-04-08 10:33:00,63.7,55.0,29.67,SSW,202,28.4,35.5,73,0.00,,,0.21,WUHU216WMR100,2013-04-08 15:33:00,
2013-04-08 10:38:00,65.3,55.4,29.67,WSW,250,13.4,28.4,70,0.00,,,0.21,WUHU216WMR100,2013-04-08 15:38:00,
2013-04-08 10:43:00,66.2,55.9,29.67,SW,230,28.9,37.3,69,0.00,,,0.21,WUHU216WMR100,2013-04-08 15:43:00,
2013-04-08 10:48:00,67.1,54.7,29.67,South,180,11.1,37.3,64,0.00,,,0.21,WUHU216WMR100,2013-04-08 15:48:00,
2013-04-08 10:53:00,67.3,52.6,29.67,NW,322,16.0,27.4,59,0.00,,,0.21,WUHU216WMR100,2013-04-08 15:53:00,
2013-04-08 10:58:00,67.8,53.1,29.67,WSW,244,22.1,31.7,59,0.00,,,0.21,WUHU216WMR100,2013-04-08 15:58:00,
2013-04-08 11:03:00,67.8,51.7,29.67,SW,236,19.1,31.7,56,0.00,,,0.21,WUHU216WMR100,2013-04-08 16:03:00,
2013-04-08 11:08:00,68.2,50.5,29.67,SSE,152,13.0,28.0,53,0.00,,,0.21,WUHU216WMR100,2013-04-08 16:08:00,
2013-04-08 11:13:00,68.2,51.5,29.67,SSW,202,14.0,25.1,55,0.00,,,0.21,WUHU216WMR100,2013-04-08 16:13:00,
2013-04-08 11:18:00,68.2,50.0,29.67,SW,235,16.5,25.1,52,0.00,,,0.21,WUHU216WMR100,2013-04-08 16:18:00,
2013-04-08 11:23:00,68.9,50.6,29.67,SW,225,23.6,25.9,52,0.00,,,0.21,WUHU216WMR100,2013-04-08 16:23:00,
2013-04-08 11:28:00,67.6,49.4,29.67,WSW,247,28.7,28.7,52,0.00,,,0.21,WUHU216WMR100,2013-04-08 16:28:00,
2013-04-08 11:33:00,67.3,49.7,29.67,SW,217,15.2,28.7,53,0.00,,,0.21,WUHU216WMR100,2013-04-08 16:33:00,
2013-04-08 11:38:00,67.8,50.1,29.67,South,189,12.0,28.7,53,0.00,,,0.21,WUHU216WMR100,2013-04-08 16:38:00,
2013-04-08 11:43:00,68.4,49.6,29.67,WSW,254,15.9,28.0,51,0.00,,,0.21,WUHU216WMR100,2013-04-08 16:43:00,
2013-04-08 11:48:00,67.8,50.1,29.67,SSW,202,20.3,28.0,53,0.00,,,0.21,WUHU216WMR100,2013-04-08 16:48:00,
2013-04-08 11:53:00,67.6,49.9,29.67,WSW,247,19.6,24.4,53,0.00,,,0.21,WUHU216WMR100,2013-04-08 16:53:00,
2013-04-08 11:58:00,68.4,51.2,29.67,SW,225,16.7,22.9,54,0.00,,,0.21,WUHU216WMR100,2013-04-08 16:58:00,
2013-04-08 12:03:00,68.9,50.6,29.67,WNW,292,28.0,28.0,52,0.00,,,0.21,WUHU216WMR100,2013-04-08 17:03:00,
2013-04-08 12:08:00,68.5,49.2,29.67,SSW,202,26.6,28.0,50,0.00,,,0.21,WUHU216WMR100,2013-04-08 17:08:00,
2013-04-08 12:13:00,68.5,49.2,29.67,SSW,198,11.4,26.6,50,0.00,,,0.21,WUHU216WMR100,2013-04-08 17:13:00,
2013-04-08 12:18:00,68.9,50.6,29.67,SW,225,14.4,26.6,52,0.00,,,0.21,WUHU216WMR100,2013-04-08 17:18:00,
2013-04-08 12:23:00,68.2,48.9,29.67,WNW,290,19.0,26.2,50,0.00,,,0.21,WUHU216WMR100,2013-04-08 17:23:00,
2013-04-08 12:28:00,68.2,49.4,29.67,WSW,247,17.0,26.2,51,0.00,,,0.21,WUHU216WMR100,2013-04-08 17:28:00,
2013-04-08 12:33:00,67.6,49.4,29.67,SSE,157,9.2,21.8,52,0.00,,,0.21,WUHU216WMR100,2013-04-08 17:33:00,
2013-04-08 12:38:00,67.5,49.3,29.67,WNW,283,23.0,25.4,52,0.00,,,0.21,WUHU216WMR100,2013-04-08 17:38:00,
2013-04-08 12:43:00,67.5,48.8,29.67,WNW,292,12.5,25.4,51,0.00,,,0.21,WUHU216WMR100,2013-04-08 17:43:00,
2013-04-08 12:49:00,68.5,49.7,29.67,WNW,295,12.6,18.8,51,0.00,,,0.21,WUHU216WMR100,2013-04-08 17:49:00,
2013-04-08 12:54:00,69.1,49.2,29.67,WSW,247,17.1,25.4,49,0.00,,,0.21,WUHU216WMR100,2013-04-08 17:54:00,
2013-04-08 12:59:00,69.1,48.6,29.67,WSW,251,12.3,32.8,48,0.00,,,0.21,WUHU216WMR100,2013-04-08 17:59:00,
2013-04-08 13:04:00,69.4,48.3,29.70,WSW,247,16.2,32.8,47,0.00,,,0.21,WUHU216WMR100,2013-04-08 18:04:00,
2013-04-08 13:09:00,69.8,48.1,29.70,NW,312,22.1,28.4,46,0.00,,,0.21,WUHU216WMR100,2013-04-08 18:09:00,
2013-04-08 13:14:00,70.2,47.2,29.70,West,267,13.9,28.4,44,0.00,,,0.21,WUHU216WMR100,2013-04-08 18:14:00,
2013-04-08 13:19:00,70.5,46.9,29.70,NW,315,31.7,31.7,43,0.00,,,0.21,WUHU216WMR100,2013-04-08 18:19:00,
2013-04-08 13:24:00,70.9,47.2,29.70,NNW,337,21.8,31.7,43,0.00,,,0.21,WUHU216WMR100,2013-04-08 18:24:00,
2013-04-08 13:29:00,70.5,46.9,29.70,WSW,247,14.0,31.7,43,0.00,,,0.21,WUHU216WMR100,2013-04-08 18:29:00,
2013-04-08 13:34:00,70.5,46.9,29.70,SW,236,14.6,28.4,43,0.00,,,0.21,WUHU216WMR100,2013-04-08 18:34:00,
2013-04-08 13:39:00,70.7,47.7,29.70,WNW,292,12.2,23.3,44,0.00,,,0.21,WUHU216WMR100,2013-04-08 18:39:00,
2013-04-08 13:44:00,70.5,46.2,29.70,West,268,17.9,32.2,42,0.00,,,0.21,WUHU216WMR100,2013-04-08 18:44:00,
2013-04-08 13:49:00,71.4,47.0,29.70,WNW,292,15.1,32.2,42,0.00,,,0.21,WUHU216WMR100,2013-04-08 18:49:00,
2013-04-08 13:54:00,71.1,46.1,29.70,WSW,257,11.2,21.1,41,0.00,,,0.21,WUHU216WMR100,2013-04-08 18:54:00,
2013-04-08 14:00:00,70.3,45.4,29.70,NW,315,15.2,17.0,41,0.00,,,0.21,WUHU216WMR100,2013-04-08 19:00:00,
2013-04-08 14:05:00,70.2,46.6,29.73,WSW,249,11.7,21.1,43,0.00,,,0.21,WUHU216WMR100,2013-04-08 19:05:00,
2013-04-08 14:10:00,71.1,46.8,29.73,West,279,20.6,26.2,42,0.00,,,0.21,WUHU216WMR100,2013-04-08 19:10:00,
2013-04-08 14:15:00,71.6,46.6,29.73,NNW,337,17.7,26.2,41,0.00,,,0.21,WUHU216WMR100,2013-04-08 19:15:00,
2013-04-08 14:20:00,71.8,46.7,29.73,WNW,294,12.1,21.8,41,0.00,,,0.21,WUHU216WMR100,2013-04-08 19:20:00,
2013-04-08 14:25:00,72.1,45.6,29.73,WSW,258,12.4,21.8,39,0.00,,,0.21,WUHU216WMR100,2013-04-08 19:25:00,
2013-04-08 14:30:00,72.3,45.8,29.73,WNW,302,14.6,21.1,39,0.00,,,0.21,WUHU216WMR100,2013-04-08 19:30:00,
2013-04-08 14:35:00,72.3,45.8,29.73,WNW,292,14.4,21.1,39,0.00,,,0.21,WUHU216WMR100,2013-04-08 19:35:00,
2013-04-08 14:40:00,72.3,45.8,29.73,WSW,247,12.5,14.4,39,0.00,,,0.21,WUHU216WMR100,2013-04-08 19:40:00,
2013-04-08 14:45:00,72.5,46.0,29.73,West,280,12.3,20.6,39,0.00,,,0.21,WUHU216WMR100,2013-04-08 19:45:00,
2013-04-08 14:50:00,72.3,46.5,29.73,West,268,13.3,20.6,40,0.00,,,0.21,WUHU216WMR100,2013-04-08 19:50:00,
2013-04-08 14:55:00,73.0,46.5,29.73,West,266,9.0,20.3,39,0.00,,,0.21,WUHU216WMR100,2013-04-08 19:55:00,
2013-04-08 15:01:00,72.3,45.1,29.73,WNW,292,14.4,20.6,38,0.00,,,0.21,WUHU216WMR100,2013-04-08 20:01:00,
2013-04-08 15:06:00,72.9,45.7,29.73,WSW,247,14.0,20.6,38,0.00,,,0.21,WUHU216WMR100,2013-04-08 20:06:00,
2013-04-08 15:11:00,73.4,45.4,29.73,West,280,11.9,17.0,37,0.00,,,0.21,WUHU216WMR100,2013-04-08 20:11:00,
2013-04-08 15:16:00,73.2,45.2,29.76,SSW,202,10.4,17.7,37,0.00,,,0.21,WUHU216WMR100,2013-04-08 20:16:00,
2013-04-08 15:22:00,73.2,45.9,29.76,WNW,292,14.0,17.7,38,0.00,,,0.21,WUHU216WMR100,2013-04-08 20:22:00,
2013-04-08 15:27:00,73.2,45.2,29.76,WNW,292,11.9,16.7,37,0.00,,,0.21,WUHU216WMR100,2013-04-08 20:27:00,
2013-04-08 15:32:00,73.4,46.1,29.76,NW,323,8.4,14.0,38,0.00,,,0.21,WUHU216WMR100,2013-04-08 20:32:00,
2013-04-08 15:37:00,73.6,46.3,29.76,WNW,292,10.7,14.4,38,0.00,,,0.21,WUHU216WMR100,2013-04-08 20:37:00,
2013-04-08 15:42:00,73.9,45.8,29.76,WNW,282,7.0,14.4,37,0.00,,,0.21,WUHU216WMR100,2013-04-08 20:42:00,
2013-04-08 15:47:00,73.6,44.8,29.76,WNW,289,13.0,17.3,36,0.00,,,0.21,WUHU216WMR100,2013-04-08 20:47:00,
2013-04-08 15:52:00,73.9,45.1,29.76,SW,217,4.7,17.3,36,0.00,,,0.21,WUHU216WMR100,2013-04-08 20:52:00,
2013-04-08 15:57:00,73.8,45.0,29.76,WNW,283,13.2,14.4,36,0.00,,,0.21,WUHU216WMR100,2013-04-08 20:57:00,
2013-04-08 16:02:00,73.2,44.5,29.76,WNW,286,9.0,14.4,36,0.00,,,0.21,WUHU216WMR100,2013-04-08 21:02:00,
2013-04-08 16:07:00,73.6,45.6,29.76,WSW,247,9.9,14.4,37,0.00,,,0.21,WUHU216WMR100,2013-04-08 21:07:00,
2013-04-08 16:12:00,73.9,45.1,29.76,WNW,292,11.9,12.9,36,0.00,,,0.21,WUHU216WMR100,2013-04-08 21:12:00,
2013-04-08 16:17:00,73.4,44.7,29.76,NW,306,12.5,14.4,36,0.00,,,0.21,WUHU216WMR100,2013-04-08 21:17:00,
2013-04-08 16:22:00,73.0,45.0,29.76,WNW,301,9.2,14.4,37,0.00,,,0.21,WUHU216WMR100,2013-04-08 21:22:00,
2013-04-08 16:27:00,72.9,44.2,29.76,WSW,247,8.9,14.0,36,0.00,,,0.21,WUHU216WMR100,2013-04-08 21:27:00,
2013-04-08 16:32:00,72.9,44.9,29.79,NW,315,9.2,12.2,37,0.00,,,0.21,WUHU216WMR100,2013-04-08 21:32:00,
2013-04-08 16:37:00,72.9,44.9,29.79,West,264,6.2,10.7,37,0.00,,,0.21,WUHU216WMR100,2013-04-08 21:37:00,
2013-04-08 16:42:00,73.0,44.3,29.79,NNW,337,10.4,11.1,36,0.00,,,0.21,WUHU216WMR100,2013-04-08 21:42:00,
2013-04-08 16:47:00,72.9,44.9,29.79,North,0,8.1,11.1,37,0.00,,,0.21,WUHU216WMR100,2013-04-08 21:47:00,
2013-04-08 16:52:00,73.0,44.3,29.79,NW,315,8.9,11.4,36,0.00,,,0.21,WUHU216WMR100,2013-04-08 21:52:00,
2013-04-08 16:57:00,71.1,42.6,29.79,NNW,337,5.1,12.2,36,0.00,,,0.21,WUHU216WMR100,2013-04-08 21:57:00,
2013-04-08 17:02:00,69.4,42.5,29.79,NNW,337,14.4,14.4,38,0.00,,,0.21,WUHU216WMR100,2013-04-08 22:02:00,
2013-04-08 17:07:00,67.8,41.1,29.79,NNW,345,10.3,14.4,38,0.00,,,0.21,WUHU216WMR100,2013-04-08 22:07:00,
2013-04-08 17:12:00,66.7,41.5,29.79,NNE,24,11.0,14.4,40,0.00,,,0.21,WUHU216WMR100,2013-04-08 22:12:00,
2013-04-08 17:17:00,65.3,41.5,29.82,NNW,342,6.2,14.4,42,0.00,,,0.21,WUHU216WMR100,2013-04-08 22:17:00,
2013-04-08 17:22:00,64.0,41.0,29.82,WNW,292,7.1,14.4,43,0.00,,,0.21,WUHU216WMR100,2013-04-08 22:22:00,
2013-04-08 17:27:00,63.5,41.1,29.82,ENE,69,4.7,10.7,44,0.00,,,0.21,WUHU216WMR100,2013-04-08 22:27:00,
2013-04-08 17:32:00,61.5,40.5,29.82,ENE,75,9.7,12.9,46,0.00,,,0.21,WUHU216WMR100,2013-04-08 22:32:00,
2013-04-08 17:37:00,60.4,41.1,29.82,North,8,8.7,18.1,49,0.00,,,0.21,WUHU216WMR100,2013-04-08 22:37:00,
2013-04-08 17:42:00,60.3,41.6,29.82,NE,45,9.9,18.1,50,0.00,,,0.21,WUHU216WMR100,2013-04-08 22:42:00,
2013-04-08 17:47:00,59.5,40.8,29.82,East,90,9.6,14.4,50,0.00,,,0.21,WUHU216WMR100,2013-04-08 22:47:00,
2013-04-08 17:52:00,59.4,41.3,29.82,NE,52,6.7,14.4,51,0.00,,,0.21,WUHU216WMR100,2013-04-08 22:52:00,
2013-04-08 17:57:00,58.3,40.8,29.82,NNW,337,7.1,9.6,52,0.00,,,0.21,WUHU216WMR100,2013-04-08 22:57:00,
2013-04-08 18:02:00,57.7,40.2,29.84,NNE,13,6.8,9.6,52,0.00,,,0.21,WUHU216WMR100,2013-04-08 23:02:00,
2013-04-08 18:07:00,56.8,40.4,29.84,NNE,26,7.7,9.6,54,0.00,,,0.21,WUHU216WMR100,2013-04-08 23:07:00,
2013-04-08 18:12:00,56.5,40.6,29.84,North,8,9.1,10.7,55,0.00,,,0.21,WUHU216WMR100,2013-04-08 23:12:00,
2013-04-08 18:17:00,55.9,40.5,29.84,ENE,67,4.5,10.7,56,0.00,,,0.21,WUHU216WMR100,2013-04-08 23:17:00,
2013-04-08 18:22:00,55.9,41.4,29.84,ENE,67,7.1,8.9,58,0.00,,,0.21,WUHU216WMR100,2013-04-08 23:22:00,
2013-04-08 18:27:00,55.4,41.0,29.84,NE,45,6.6,8.9,58,0.00,,,0.21,WUHU216WMR100,2013-04-08 23:27:00,
2013-04-08 18:32:00,54.7,40.7,29.84,NE,45,7.1,9.6,59,0.00,,,0.21,WUHU216WMR100,2013-04-08 23:32:00,
2013-04-08 18:37:00,54.0,41.0,29.84,North,3,7.8,9.6,61,0.00,,,0.21,WUHU216WMR100,2013-04-08 23:37:00,
2013-04-08 18:43:00,53.4,40.8,29.84,SE,135,3.3,8.1,62,0.00,,,0.21,WUHU216WMR100,2013-04-08 23:43:00,
2013-04-08 18:48:00,53.2,41.0,29.87,ENE,69,4.9,7.1,63,0.00,,,0.21,WUHU216WMR100,2013-04-08 23:48:00,
2013-04-08 18:53:00,52.7,41.0,29.87,NE,37,5.4,6.6,64,0.00,,,0.21,WUHU216WMR100,2013-04-08 23:53:00,
2013-04-08 18:58:00,52.3,40.6,29.87,NNW,337,6.3,6.6,64,0.00,,,0.21,WUHU216WMR100,2013-04-08 23:58:00,
2013-04-08 19:03:00,51.6,40.7,29.87,North,9,3.5,7.1,66,0.00,,,0.21,WUHU216WMR100,2013-04-09 00:03:00,
2013-04-08 19:08:00,51.1,40.6,29.87,ENE,67,5.6,7.1,67,0.00,,,0.21,WUHU216WMR100,2013-04-09 00:08:00,
2013-04-08 19:13:00,50.7,40.6,29.87,NE,45,4.8,7.1,68,0.00,,,0.21,WUHU216WMR100,2013-04-09 00:13:00,
2013-04-08 19:18:00,50.5,40.4,29.87,East,90,3.6,5.9,68,0.00,,,0.21,WUHU216WMR100,2013-04-09 00:18:00,
2013-04-08 19:23:00,50.2,40.5,29.87,NE,45,4.5,5.9,69,0.00,,,0.21,WUHU216WMR100,2013-04-09 00:23:00,
2013-04-08 19:28:00,49.8,40.5,29.87,North,6,4.0,5.9,70,0.00,,,0.21,WUHU216WMR100,2013-04-09 00:28:00,
2013-04-08 19:33:00,49.5,40.9,29.87,NW,315,5.6,6.3,72,0.00,,,0.21,WUHU216WMR100,2013-04-09 00:33:00,
2013-04-08 19:38:00,49.1,40.6,29.87,NNE,27,3.8,6.3,72,0.00,,,0.21,WUHU216WMR100,2013-04-09 00:38:00,
2013-04-08 19:43:00,48.9,40.7,29.87,North,3,3.7,6.3,73,0.00,,,0.21,WUHU216WMR100,2013-04-09 00:43:00,
2013-04-08 19:48:00,48.6,40.4,29.87,NE,45,5.1,6.3,73,0.00,,,0.21,WUHU216WMR100,2013-04-09 00:48:00,
2013-04-08 19:53:00,48.4,40.6,29.87,NNE,13,6.0,7.1,74,0.00,,,0.21,WUHU216WMR100,2013-04-09 00:53:00,
2013-04-08 19:58:00,48.2,40.7,29.87,North,0,2.6,7.1,75,0.00,,,0.21,WUHU216WMR100,2013-04-09 00:58:00,
2013-04-08 20:03:00,48.2,41.1,29.87,ENE,76,4.3,6.6,76,0.00,,,0.21,WUHU216WMR100,2013-04-09 01:03:00,
2013-04-08 20:08:00,47.8,40.7,29.87,NNE,24,7.0,9.2,76,0.00,,,0.21,WUHU216WMR100,2013-04-09 01:08:00,
2013-04-08 20:13:00,47.7,40.9,29.87,NE,43,7.7,9.2,77,0.00,,,0.21,WUHU216WMR100,2013-04-09 01:13:00,
2013-04-08 20:18:00,47.3,40.5,29.87,North,0,4.5,8.9,77,0.00,,,0.21,WUHU216WMR100,2013-04-09 01:18:00,
2013-04-08 20:23:00,47.1,40.3,29.87,NE,52,4.1,7.4,77,0.00,,,0.21,WUHU216WMR100,2013-04-09 01:23:00,
2013-04-08 20:28:00,46.9,40.1,29.87,ENE,75,7.6,9.2,77,0.00,,,0.21,WUHU216WMR100,2013-04-09 01:28:00,
2013-04-08 20:33:00,46.6,39.8,29.90,North,6,3.1,9.2,77,0.00,,,0.21,WUHU216WMR100,2013-04-09 01:33:00,
2013-04-08 20:38:00,46.2,39.8,29.90,ENE,74,4.6,6.6,78,0.00,,,0.21,WUHU216WMR100,2013-04-09 01:38:00,
2013-04-08 20:43:00,46.0,39.6,29.90,NE,45,4.5,8.1,78,0.00,,,0.21,WUHU216WMR100,2013-04-09 01:43:00,
2013-04-08 20:48:00,45.7,39.6,29.90,ENE,67,5.1,8.1,79,0.00,,,0.21,WUHU216WMR100,2013-04-09 01:48:00,
2013-04-08 20:53:00,45.5,39.4,29.90,NE,51,7.0,9.2,79,0.00,,,0.21,WUHU216WMR100,2013-04-09 01:53:00,
2013-04-08 20:58:00,45.3,39.2,29.90,ENE,67,4.5,9.2,79,0.00,,,0.21,WUHU216WMR100,2013-04-09 01:58:00,
2013-04-08 21:03:00,45.1,39.3,29.90,NE,49,5.6,9.6,80,0.00,,,0.21,WUHU216WMR100,2013-04-09 02:03:00,
2013-04-08 21:08:00,44.8,39.3,29.90,ENE,67,4.1,9.6,81,0.00,,,0.21,WUHU216WMR100,2013-04-09 02:08:00,
2013-04-08 21:13:00,44.8,39.3,29.90,NE,45,5.1,7.8,81,0.00,,,0.21,WUHU216WMR100,2013-04-09 02:13:00,
2013-04-08 21:18:00,44.6,39.5,29.93,ENE,61,5.5,7.8,82,0.00,,,0.21,WUHU216WMR100,2013-04-09 02:18:00,
2013-04-08 21:23:00,44.6,39.8,29.93,NE,45,4.8,6.3,83,0.00,,,0.21,WUHU216WMR100,2013-04-09 02:23:00,
2013-04-08 21:28:00,44.4,39.3,29.93,East,82,3.0,4.8,82,0.00,,,0.21,WUHU216WMR100,2013-04-09 02:28:00,
2013-04-08 21:33:00,44.2,39.4,29.93,ENE,58,4.9,5.6,83,0.00,,,0.21,WUHU216WMR100,2013-04-09 02:33:00,
2013-04-08 21:38:00,44.2,39.7,29.93,ENE,62,6.0,6.3,84,0.00,,,0.21,WUHU216WMR100,2013-04-09 02:38:00,
2013-04-08 21:43:00,44.1,39.3,29.93,North,351,4.6,6.3,83,0.00,,,0.21,WUHU216WMR100,2013-04-09 02:43:00,
2013-04-08 21:48:00,43.9,39.1,29.93,ENE,67,3.6,5.1,83,0.00,,,0.21,WUHU216WMR100,2013-04-09 02:48:00,
2013-04-08 21:53:00,43.9,39.1,29.93,NE,54,2.8,5.1,83,0.00,,,0.21,WUHU216WMR100,2013-04-09 02:53:00,
2013-04-08 21:58:00,43.7,38.9,29.93,East,90,3.0,4.8,83,0.00,,,0.21,WUHU216WMR100,2013-04-09 02:58:00,
2013-04-08 22:03:00,43.7,39.2,29.93,ESE,112,2.4,4.5,84,0.00,,,0.21,WUHU216WMR100,2013-04-09 03:03:00,
2013-04-08 22:08:00,43.5,39.0,29.93,ESE,121,3.7,5.1,84,0.00,,,0.21,WUHU216WMR100,2013-04-09 03:08:00,
2013-04-08 22:13:00,43.5,39.6,29.93,ENE,67,5.6,6.6,86,0.00,,,0.21,WUHU216WMR100,2013-04-09 03:13:00,
2013-04-08 22:19:00,43.7,40.1,29.96,East,96,6.0,8.1,87,0.00,,,0.21,WUHU216WMR100,2013-04-09 03:19:00,
2013-04-08 22:24:00,43.5,39.9,29.96,East,97,4.7,8.1,87,0.00,,,0.21,WUHU216WMR100,2013-04-09 03:24:00,
2013-04-08 22:29:00,43.3,39.7,29.96,SSE,157,4.5,7.8,87,0.00,,,0.21,WUHU216WMR100,2013-04-09 03:29:00,
2013-04-08 22:34:00,43.2,39.6,29.96,SE,135,4.8,7.8,87,0.00,,,0.21,WUHU216WMR100,2013-04-09 03:34:00,
2013-04-08 22:39:00,43.2,39.9,29.96,ESE,112,5.1,7.1,88,0.00,,,0.21,WUHU216WMR100,2013-04-09 03:39:00,
2013-04-08 22:44:00,43.0,39.7,29.96,SE,126,4.8,7.1,88,0.00,,,0.21,WUHU216WMR100,2013-04-09 03:44:00,
2013-04-08 22:50:00,43.0,39.7,29.96,ESE,112,4.3,5.1,88,0.00,,,0.21,WUHU216WMR100,2013-04-09 03:50:00,
2013-04-08 22:55:00,42.8,39.5,29.96,NNE,24,3.4,5.1,88,0.00,,,0.21,WUHU216WMR100,2013-04-09 03:55:00,
2013-04-08 23:00:00,42.6,39.3,29.96,SSE,157,4.8,5.1,88,0.00,,,0.21,WUHU216WMR100,2013-04-09 04:00:00,
2013-04-08 23:05:00,42.6,39.3,29.96,ENE,67,2.9,5.9,88,0.00,,,0.21,WUHU216WMR100,2013-04-09 04:05:00,
2013-04-08 23:10:00,42.4,39.1,29.96,ESE,122,3.3,5.9,88,0.00,,,0.21,WUHU216WMR100,2013-04-09 04:10:00,
2013-04-08 23:15:00,42.3,39.0,29.96,NE,45,3.6,4.8,88,0.00,,,0.21,WUHU216WMR100,2013-04-09 04:15:00,
2013-04-08 23:20:00,42.3,39.0,29.96,NNE,22,2.1,3.6,88,0.00,,,0.21,WUHU216WMR100,2013-04-09 04:20:00,
2013-04-08 23:25:00,42.3,38.7,29.96,NNE,22,2.1,3.6,87,0.00,,,0.21,WUHU216WMR100,2013-04-09 04:25:00,
2013-04-08 23:30:00,42.3,39.0,29.96,NE,45,1.8,2.1,88,0.00,,,0.21,WUHU216WMR100,2013-04-09 04:30:00,
2013-04-08 23:35:00,42.4,39.1,29.96,ENE,67,2.8,3.3,88,0.00,,,0.21,WUHU216WMR100,2013-04-09 04:35:00,
2013-04-08 23:40:00,42.6,39.3,29.96,ENE,67,2.1,3.6,88,0.00,,,0.21,WUHU216WMR100,2013-04-09 04:40:00,
2013-04-08 23:45:00,42.8,39.5,29.96,East,90,2.6,3.6,88,0.00,,,0.21,WUHU216WMR100,2013-04-09 04:45:00,
2013-04-08 23:51:00,43.0,39.9,29.96,ESE,112,3.7,4.1,89,0.00,,,0.21,WUHU216WMR100,2013-04-09 04:51:00,
2013-04-08 23:56:00,42.8,39.5,29.96,SSE,157,0.0,4.1,88,0.00,,,0.21,WUHU216WMR100,2013-04-09 04:56:00,